New York, NY

10:03 PM EST on December 14, 2019 (GMT -0500)
La Guardia

Weather History for KLGA - October, 2019

Change the Weather History Date:

Monday, October 14, 2019

  Actual Average Record
Temperature  
Mean Temperature 67 °F 59 °F  
Max Temperature 74 °F 66 °F 82 °F (1975)
Min Temperature 59 °F 52 °F 40 °F (1958)
Degree Days  
Heating Degree Days 0 7  
Month to date heating degree days 45 74  
Since 1 July heating degree days 48 109  
Cooling Degree Days 2 1  
Month to date cooling degree days 29 19  
Year to date cooling degree days 1484 1209  
Growing Degree Days 17 (Base 50)    
Moisture  
Dew Point 49 °F    
Average Humidity 58    
Maximum Humidity 80    
Minimum Humidity 35    
Precipitation  
Precipitation T in 0.13 in 1.66 in (1955)
Month to date precipitation 1.05 1.75  
Year to date precipitation 37.53 35.73  
Snow  
Snow 0.00 in 0.00 in - ()
Month to date snowfall 0.0 0.0  
Since 1 July snowfall 0.0 0.0  
Snow Depth 0.00 in    
Sea Level Pressure  
Sea Level Pressure 29.97 in    
Wind  
Wind Speed 6 mph (SSW)    
Max Wind Speed 14 mph    
Max Gust Speed 20 mph    
Visibility 10 miles    
Events Rain    
T = Trace of Precipitation, MM = Missing Value Source: NWS Daily Summary

Daily Weather History Graph

Daily Weather History Graph

Search for Another Location

Airport or City:

Astronomy

Oct. 14, 2019 Rise Set
Actual Time 7:05 AM EDT 6:17 PM EDT
Civil Twilight 6:37 AM EDT 6:44 PM EDT
Nautical Twilight 6:06 AM EDT 7:16 PM EDT
Astronomical Twilight 5:34 AM EDT 7:47 PM EDT
Moon 7:05 PM EDT (10/14) 7:34 AM EDT (10/14)
Length of Visible Light 12h 06m
Length of Day
11h 11m
Waxing Gibbous, 99% of the Moon is Illuminated
Oct 14
Waxing Gibbous
Oct 21
Last Quarter
Oct 27
New
Nov 4
First Quarter
Nov 12
Full

Hourly Weather History & Observations

Time (EDT) Temp. Dew Point Humidity Pressure Visibility Wind Dir Wind Speed Gust Speed Precip Events Conditions
12:51 AM 62.1 °F 53.1 °F 72% 30.00 in 10.0 mi South 4.6 mph - N/A   Overcast
1:27 AM 62.1 °F 53.1 °F 72% 30.00 in 10.0 mi South 5.8 mph - N/A   Overcast
1:42 AM 62.1 °F 53.1 °F 72% 29.99 in 10.0 mi South 5.8 mph - 0.00 in Rain Light Rain
1:51 AM 62.1 °F 53.1 °F 72% 29.99 in 10.0 mi South 5.8 mph - 0.00 in   Overcast
2:13 AM 61.0 °F 53.1 °F 75% 29.98 in 10.0 mi SSE 8.1 mph - N/A   Overcast
2:51 AM 61.0 °F 53.1 °F 75% 29.97 in 10.0 mi SSE 5.8 mph - N/A   Overcast
3:10 AM 60.1 °F 54.0 °F 80% 29.96 in 10.0 mi SSE 6.9 mph - N/A   Overcast
3:51 AM 60.1 °F 54.0 °F 80% 29.96 in 10.0 mi South 4.6 mph - N/A   Mostly Cloudy
4:32 AM 59.0 °F 54.0 °F 83% 29.95 in 10.0 mi SE 4.6 mph - N/A   Mostly Cloudy
4:51 AM 60.1 °F 54.0 °F 80% 29.96 in 10.0 mi SE 4.6 mph - N/A   Overcast
5:15 AM 59.0 °F 53.1 °F 81% 29.94 in 10.0 mi SE 6.9 mph - N/A   Scattered Clouds
5:51 AM 59.0 °F 54.0 °F 83% 29.96 in 10.0 mi SSE 6.9 mph - N/A   Mostly Cloudy
6:51 AM 59.0 °F 53.1 °F 81% 29.97 in 10.0 mi South 3.5 mph - N/A   Mostly Cloudy
7:51 AM 60.1 °F 54.0 °F 80% 29.99 in 10.0 mi Calm Calm - N/A   Mostly Cloudy
8:51 AM 62.1 °F 54.0 °F 75% 30.00 in 10.0 mi West 4.6 mph - N/A   Mostly Cloudy
9:51 AM 62.1 °F 51.1 °F 67% 30.01 in 10.0 mi West 9.2 mph - N/A   Mostly Cloudy
10:51 AM 64.0 °F 51.1 °F 63% 29.99 in 10.0 mi West 10.4 mph - N/A   Mostly Cloudy
11:51 AM 66.0 °F 51.1 °F 59% 29.97 in 10.0 mi SW 6.9 mph - N/A   Scattered Clouds
12:51 PM 68.0 °F 50.0 °F 52% 29.95 in 10.0 mi Variable 4.6 mph - N/A   Partly Cloudy
1:51 PM 70.0 °F 48.0 °F 46% 29.93 in 10.0 mi Variable 5.8 mph - N/A   Partly Cloudy
2:51 PM 72.0 °F 46.0 °F 40% 29.91 in 10.0 mi SSW 10.4 mph - N/A   Clear
3:51 PM 73.9 °F 44.1 °F 34% 29.90 in 10.0 mi WSW 10.4 mph - N/A   Clear
4:51 PM 73.9 °F 36.0 °F 25% 29.89 in 10.0 mi West 13.8 mph - N/A   Clear
5:51 PM 66.9 °F 54.0 °F 63% 29.92 in 10.0 mi South 9.2 mph - N/A   Clear
6:51 PM 70.0 °F 39.0 °F 32% 29.93 in 10.0 mi West 9.2 mph - N/A   Clear
7:51 PM 70.0 °F 37.9 °F 31% 29.96 in 10.0 mi WSW 13.8 mph - N/A   Clear
8:51 PM 68.0 °F 39.9 °F 36% 29.98 in 10.0 mi WNW 8.1 mph - N/A   Clear
9:51 PM 66.9 °F 42.1 °F 40% 30.00 in 10.0 mi NW 11.5 mph - N/A   Clear
10:51 PM 66.0 °F 41.0 °F 40% 30.02 in 10.0 mi WNW 12.7 mph - N/A   Clear
11:51 PM 64.0 °F 42.1 °F 45% 30.03 in 10.0 mi NW 12.7 mph - N/A   Clear